Year,Month,Day,Hour,Minute,Value (Times are PST for temperature in C)
2010,08,25,00,00,14.10
2010,08,25,00,01,14.10
2010,08,25,00,02,14.10
2010,08,25,00,03,14.00
2010,08,25,00,04,14.00
2010,08,25,00,05,14.00
2010,08,25,00,06,14.00
2010,08,25,00,07,14.00
2010,08,25,00,08,14.00
2010,08,25,00,09,13.90
2010,08,25,00,10,13.90
2010,08,25,00,11,13.90
2010,08,25,00,12,13.90
2010,08,25,00,13,13.80
2010,08,25,00,14,13.80
2010,08,25,00,15,13.80
2010,08,25,00,16,13.80
2010,08,25,00,17,13.80
2010,08,25,00,18,13.80
2010,08,25,00,19,13.80
2010,08,25,00,20,13.80
2010,08,25,00,21,13.70
2010,08,25,00,22,13.70
2010,08,25,00,23,13.70
2010,08,25,00,24,13.70
2010,08,25,00,25,13.70
2010,08,25,00,26,13.70
2010,08,25,00,27,13.70
2010,08,25,00,28,13.70
2010,08,25,00,29,13.70
2010,08,25,00,30,13.70
2010,08,25,00,31,13.70
2010,08,25,00,32,13.70
2010,08,25,00,33,13.70
2010,08,25,00,34,13.70
2010,08,25,00,35,13.70
2010,08,25,00,36,13.70
2010,08,25,00,37,13.70
2010,08,25,00,38,13.70
2010,08,25,00,39,13.70
2010,08,25,00,40,13.70
2010,08,25,00,41,13.60
2010,08,25,00,42,13.60
2010,08,25,00,43,13.60
2010,08,25,00,44,13.60
2010,08,25,00,45,13.60
2010,08,25,00,46,13.60
2010,08,25,00,47,13.50
2010,08,25,00,48,13.50
2010,08,25,00,49,13.50
2010,08,25,00,50,13.50
2010,08,25,00,51,13.50
2010,08,25,00,52,13.50
2010,08,25,00,53,13.50
2010,08,25,00,54,13.50
2010,08,25,00,55,13.50
2010,08,25,00,56,13.50
2010,08,25,00,57,13.50
2010,08,25,00,58,13.50
2010,08,25,00,59,13.50
2010,08,25,01,00,13.50
2010,08,25,01,01,13.50
2010,08,25,01,02,13.50
2010,08,25,01,03,13.50
2010,08,25,01,04,13.50
2010,08,25,01,05,13.50
2010,08,25,01,06,13.50
2010,08,25,01,07,13.40
2010,08,25,01,08,13.40
2010,08,25,01,09,13.40
2010,08,25,01,10,13.40
2010,08,25,01,11,13.40
2010,08,25,01,12,13.40
2010,08,25,01,13,13.30
2010,08,25,01,14,13.30
2010,08,25,01,15,13.30
2010,08,25,01,16,13.30
2010,08,25,01,17,13.40
2010,08,25,01,18,13.40
2010,08,25,01,19,13.40
2010,08,25,01,20,13.40
2010,08,25,01,21,13.50
2010,08,25,01,22,13.50
2010,08,25,01,23,13.50
2010,08,25,01,24,13.50
2010,08,25,01,25,13.50
2010,08,25,01,26,13.50
2010,08,25,01,27,13.50
2010,08,25,01,28,13.50
2010,08,25,01,29,13.50
2010,08,25,01,30,13.50
2010,08,25,01,31,13.60
2010,08,25,01,32,13.60
2010,08,25,01,33,13.60
2010,08,25,01,34,13.60
2010,08,25,01,35,13.60
2010,08,25,01,36,13.50
2010,08,25,01,37,13.50
2010,08,25,01,38,13.50
2010,08,25,01,39,13.50
2010,08,25,01,40,13.50
2010,08,25,01,41,13.50
2010,08,25,01,42,13.50
2010,08,25,01,43,13.50
2010,08,25,01,44,13.50
2010,08,25,01,45,13.40
2010,08,25,01,46,13.40
2010,08,25,01,47,13.40
2010,08,25,01,48,13.50
2010,08,25,01,49,13.40
2010,08,25,01,50,13.40
2010,08,25,01,51,13.40
2010,08,25,01,52,13.40
2010,08,25,01,53,13.40
2010,08,25,01,54,13.40
2010,08,25,01,55,13.40
2010,08,25,01,56,13.40
2010,08,25,01,57,13.40
2010,08,25,01,58,13.50
2010,08,25,01,59,13.50
2010,08,25,02,00,13.40
2010,08,25,02,01,13.40
2010,08,25,02,02,13.40
2010,08,25,02,03,13.40
2010,08,25,02,04,13.40
2010,08,25,02,05,13.40
2010,08,25,02,06,13.40
2010,08,25,02,07,13.40
2010,08,25,02,08,13.40
2010,08,25,02,09,13.40
2010,08,25,02,10,13.40
2010,08,25,02,11,13.40
2010,08,25,02,12,13.40
2010,08,25,02,13,13.40
2010,08,25,02,14,13.50
2010,08,25,02,15,13.50
2010,08,25,02,16,13.50
2010,08,25,02,17,13.50
2010,08,25,02,18,13.60
2010,08,25,02,19,13.60
2010,08,25,02,20,13.60
2010,08,25,02,21,13.60
2010,08,25,02,22,13.60
2010,08,25,02,23,13.60
2010,08,25,02,24,13.60
2010,08,25,02,25,13.60
2010,08,25,02,26,13.60
2010,08,25,02,27,13.60
2010,08,25,02,28,13.60
2010,08,25,02,29,13.60
2010,08,25,02,30,13.60
2010,08,25,02,31,13.60
2010,08,25,02,32,13.60
2010,08,25,02,33,13.60
2010,08,25,02,34,13.60
2010,08,25,02,35,13.60
2010,08,25,02,36,13.60
2010,08,25,02,37,13.50
2010,08,25,02,38,13.50
2010,08,25,02,39,13.50
2010,08,25,02,40,13.50
2010,08,25,02,41,13.50
2010,08,25,02,42,13.40
2010,08,25,02,43,13.40
2010,08,25,02,44,13.40
2010,08,25,02,45,13.30
2010,08,25,02,46,13.30
2010,08,25,02,47,13.30
2010,08,25,02,48,13.30
2010,08,25,02,49,13.30
2010,08,25,02,50,13.30
2010,08,25,02,51,13.30
2010,08,25,02,52,13.30
2010,08,25,02,53,13.30
2010,08,25,02,54,13.20
2010,08,25,02,55,13.20
2010,08,25,02,56,13.20
2010,08,25,02,57,13.20
2010,08,25,02,58,13.10
2010,08,25,02,59,13.10
2010,08,25,03,00,13.10
2010,08,25,03,01,13.10
2010,08,25,03,02,13.10
2010,08,25,03,03,13.10
2010,08,25,03,04,13.10
2010,08,25,03,05,13.20
2010,08,25,03,06,13.20
2010,08,25,03,07,13.20
2010,08,25,03,08,13.20
2010,08,25,03,09,13.30
2010,08,25,03,10,13.30
2010,08,25,03,11,13.30
2010,08,25,03,12,13.30
2010,08,25,03,13,13.30
2010,08,25,03,14,13.30
2010,08,25,03,15,13.30
2010,08,25,03,16,13.30
2010,08,25,03,17,13.30
2010,08,25,03,18,13.20
2010,08,25,03,19,13.20
2010,08,25,03,20,13.20
2010,08,25,03,21,13.20
2010,08,25,03,22,13.20
2010,08,25,03,23,13.20
2010,08,25,03,24,13.10
2010,08,25,03,25,13.10
2010,08,25,03,26,13.10
2010,08,25,03,27,13.10
2010,08,25,03,28,13.10
2010,08,25,03,29,13.10
2010,08,25,03,30,13.10
2010,08,25,03,31,13.10
2010,08,25,03,32,13.10
2010,08,25,03,33,13.10
2010,08,25,03,34,13.10
2010,08,25,03,35,13.10
2010,08,25,03,36,13.20
2010,08,25,03,37,13.20
2010,08,25,03,38,13.20
2010,08,25,03,39,13.20
2010,08,25,03,40,13.20
2010,08,25,03,41,13.20
2010,08,25,03,42,13.20
2010,08,25,03,43,13.20
2010,08,25,03,44,13.20
2010,08,25,03,45,13.20
2010,08,25,03,46,13.20
2010,08,25,03,47,13.10
2010,08,25,03,48,13.10
2010,08,25,03,49,13.10
2010,08,25,03,50,13.10
2010,08,25,03,51,13.00
2010,08,25,03,52,13.00
2010,08,25,03,53,13.00
2010,08,25,03,54,12.90
2010,08,25,03,55,12.90
2010,08,25,03,56,12.90
2010,08,25,03,57,12.90
2010,08,25,03,58,12.90
2010,08,25,03,59,12.90
2010,08,25,04,00,12.90
2010,08,25,04,01,12.90
2010,08,25,04,02,12.90
2010,08,25,04,03,12.80
2010,08,25,04,04,12.80
2010,08,25,04,05,12.70
2010,08,25,04,06,12.60
2010,08,25,04,07,12.60
2010,08,25,04,08,12.50
2010,08,25,04,09,12.50
2010,08,25,04,10,12.50
2010,08,25,04,11,12.40
2010,08,25,04,12,12.40
2010,08,25,04,13,12.40
2010,08,25,04,14,12.40
2010,08,25,04,15,12.30
2010,08,25,04,16,12.30
2010,08,25,04,17,12.30
2010,08,25,04,18,12.30
2010,08,25,04,19,12.30
2010,08,25,04,20,12.30
2010,08,25,04,21,12.30
2010,08,25,04,22,12.30
2010,08,25,04,23,12.20
2010,08,25,04,24,12.20
2010,08,25,04,25,12.20
2010,08,25,04,26,12.20
2010,08,25,04,27,12.10
2010,08,25,04,28,12.10
2010,08,25,04,29,12.10
2010,08,25,04,30,12.00
2010,08,25,04,31,12.00
2010,08,25,04,32,12.00
2010,08,25,04,33,12.00
2010,08,25,04,34,11.90
2010,08,25,04,35,11.90
2010,08,25,04,36,11.90
2010,08,25,04,37,11.90
2010,08,25,04,38,11.80
2010,08,25,04,39,11.80
2010,08,25,04,40,11.80
2010,08,25,04,41,11.80
2010,08,25,04,42,11.80
2010,08,25,04,43,11.80
2010,08,25,04,44,11.80
2010,08,25,04,45,11.80
2010,08,25,04,46,11.80
2010,08,25,04,47,11.80
2010,08,25,04,48,11.80
2010,08,25,04,49,11.80
2010,08,25,04,50,11.80
2010,08,25,04,51,11.80
2010,08,25,04,52,11.80
2010,08,25,04,53,11.80
2010,08,25,04,54,11.80
2010,08,25,04,55,11.80
2010,08,25,04,56,11.80
2010,08,25,04,57,11.80
2010,08,25,04,58,11.80
2010,08,25,04,59,11.80
2010,08,25,05,00,11.80
2010,08,25,05,01,11.80
2010,08,25,05,02,11.80
2010,08,25,05,03,11.80
2010,08,25,05,04,11.80
2010,08,25,05,05,11.90
2010,08,25,05,06,11.90
2010,08,25,05,07,12.00
2010,08,25,05,08,12.00
2010,08,25,05,09,12.00
2010,08,25,05,10,12.00
2010,08,25,05,11,12.00
2010,08,25,05,12,12.00
2010,08,25,05,13,11.90
2010,08,25,05,14,11.90
2010,08,25,05,15,11.90
2010,08,25,05,16,11.90
2010,08,25,05,17,11.90
2010,08,25,05,18,11.90
2010,08,25,05,19,11.90
2010,08,25,05,20,12.00
2010,08,25,05,21,12.00
2010,08,25,05,22,12.00
2010,08,25,05,23,12.10
2010,08,25,05,24,12.10
2010,08,25,05,25,12.20
2010,08,25,05,26,12.20
2010,08,25,05,27,12.20
2010,08,25,05,28,12.30
2010,08,25,05,29,12.30
2010,08,25,05,30,12.30
2010,08,25,05,31,12.30
2010,08,25,05,32,12.30
2010,08,25,05,33,12.30
2010,08,25,05,34,12.30
2010,08,25,05,35,12.20
2010,08,25,05,36,12.20
2010,08,25,05,37,12.20
2010,08,25,05,38,12.20
2010,08,25,05,39,12.30
2010,08,25,05,40,12.30
2010,08,25,05,41,12.30
2010,08,25,05,42,12.30
2010,08,25,05,43,12.30
2010,08,25,05,44,12.30
2010,08,25,05,45,12.30
2010,08,25,05,46,12.30
2010,08,25,05,47,12.30
2010,08,25,05,48,12.30
2010,08,25,05,49,12.40
2010,08,25,05,50,12.40
2010,08,25,05,51,12.40
2010,08,25,05,52,12.40
2010,08,25,05,53,12.40
2010,08,25,05,54,12.40
2010,08,25,05,55,12.40
2010,08,25,05,56,12.40
2010,08,25,05,57,12.40
2010,08,25,05,58,12.40
2010,08,25,05,59,12.40
2010,08,25,06,00,12.30
2010,08,25,06,01,12.30
2010,08,25,06,02,12.30
2010,08,25,06,03,12.30
2010,08,25,06,04,12.30
2010,08,25,06,05,12.30
2010,08,25,06,06,12.30
2010,08,25,06,07,12.30
2010,08,25,06,08,12.30
2010,08,25,06,09,12.30
2010,08,25,06,10,12.30
2010,08,25,06,11,12.30
2010,08,25,06,12,12.30
2010,08,25,06,13,12.20
2010,08,25,06,14,12.10
2010,08,25,06,15,12.00
2010,08,25,06,16,12.00
2010,08,25,06,17,11.90
2010,08,25,06,18,11.80
2010,08,25,06,19,11.80
2010,08,25,06,20,11.70
2010,08,25,06,21,11.70
2010,08,25,06,22,11.70
2010,08,25,06,23,11.60
2010,08,25,06,24,11.60
2010,08,25,06,25,11.60
2010,08,25,06,26,11.60
2010,08,25,06,27,11.60
2010,08,25,06,28,11.60
2010,08,25,06,29,11.60
2010,08,25,06,30,11.60
2010,08,25,06,31,11.60
2010,08,25,06,32,11.60
2010,08,25,06,33,11.60
2010,08,25,06,34,11.60
2010,08,25,06,35,11.60
2010,08,25,06,36,11.60
2010,08,25,06,37,11.60
2010,08,25,06,38,11.60
2010,08,25,06,39,11.60
2010,08,25,06,40,11.60
2010,08,25,06,41,11.60
2010,08,25,06,42,11.50
2010,08,25,06,43,11.40
2010,08,25,06,44,11.40
2010,08,25,06,45,11.40
2010,08,25,06,46,11.40
2010,08,25,06,47,11.40
2010,08,25,06,48,11.40
2010,08,25,06,49,11.40
2010,08,25,06,50,11.40
2010,08,25,06,51,11.40
2010,08,25,06,52,11.40
2010,08,25,06,53,11.40
2010,08,25,06,54,11.40
2010,08,25,06,55,11.40
2010,08,25,06,56,11.40
2010,08,25,06,57,11.40
2010,08,25,06,58,11.40
2010,08,25,06,59,11.40
2010,08,25,07,00,11.40
2010,08,25,07,01,11.40
2010,08,25,07,02,11.40
2010,08,25,07,03,11.50
2010,08,25,07,04,11.60
2010,08,25,07,05,11.60
2010,08,25,07,06,11.60
2010,08,25,07,07,11.60
2010,08,25,07,08,11.60
2010,08,25,07,09,11.60
2010,08,25,07,10,11.60
2010,08,25,07,11,11.70
2010,08,25,07,12,11.70
2010,08,25,07,13,11.70
2010,08,25,07,14,11.70
2010,08,25,07,15,11.80
2010,08,25,07,16,11.80
2010,08,25,07,17,11.80
2010,08,25,07,18,11.80
2010,08,25,07,19,11.80
2010,08,25,07,20,11.80
2010,08,25,07,21,11.90
2010,08,25,07,22,11.90
2010,08,25,07,23,11.90
2010,08,25,07,24,11.90
2010,08,25,07,25,11.90
2010,08,25,07,26,12.00
2010,08,25,07,27,12.00
2010,08,25,07,28,12.00
2010,08,25,07,29,12.10
2010,08,25,07,30,12.10
2010,08,25,07,31,12.10
2010,08,25,07,32,12.20
2010,08,25,07,33,12.20
2010,08,25,07,34,12.20
2010,08,25,07,35,12.20
2010,08,25,07,36,12.30
2010,08,25,07,37,12.30
2010,08,25,07,38,12.30
2010,08,25,07,39,12.40
2010,08,25,07,40,12.40
2010,08,25,07,41,12.40
2010,08,25,07,42,12.40
2010,08,25,07,43,12.40
2010,08,25,07,44,12.50
2010,08,25,07,45,12.50
2010,08,25,07,46,12.50
2010,08,25,07,47,12.50
2010,08,25,07,48,12.60
2010,08,25,07,49,12.50
2010,08,25,07,50,12.50
2010,08,25,07,51,12.50
2010,08,25,07,52,12.50
2010,08,25,07,53,12.40
2010,08,25,07,54,12.40
2010,08,25,07,55,12.40
2010,08,25,07,56,12.40
2010,08,25,07,57,12.40
2010,08,25,07,58,12.40
2010,08,25,07,59,12.40
2010,08,25,08,00,12.40
2010,08,25,08,01,12.40
2010,08,25,08,02,12.40
2010,08,25,08,03,12.40
2010,08,25,08,04,12.40
2010,08,25,08,05,12.40
2010,08,25,08,06,12.50
2010,08,25,08,07,12.50
2010,08,25,08,08,12.60
2010,08,25,08,09,12.60
2010,08,25,08,10,12.70
2010,08,25,08,11,12.70
2010,08,25,08,12,12.70
2010,08,25,08,13,12.80
2010,08,25,08,14,12.80
2010,08,25,08,15,12.80
2010,08,25,08,16,12.90
2010,08,25,08,17,12.90
2010,08,25,08,18,12.90
2010,08,25,08,19,12.90
2010,08,25,08,20,12.90
2010,08,25,08,21,12.90
2010,08,25,08,22,13.00
2010,08,25,08,23,13.00
2010,08,25,08,24,13.00
2010,08,25,08,25,13.00
2010,08,25,08,26,12.90
2010,08,25,08,27,12.90
2010,08,25,08,28,12.90
2010,08,25,08,29,12.90
2010,08,25,08,30,12.90
2010,08,25,08,31,12.90
2010,08,25,08,32,12.80
2010,08,25,08,33,12.80
2010,08,25,08,34,12.70
2010,08,25,08,35,12.70
2010,08,25,08,36,12.80
2010,08,25,08,37,12.80
2010,08,25,08,38,12.80
2010,08,25,08,39,12.80
2010,08,25,08,40,12.80
2010,08,25,08,41,12.80
2010,08,25,08,42,12.80
2010,08,25,08,43,12.80
2010,08,25,08,44,12.70
2010,08,25,08,45,12.80
2010,08,25,08,46,12.80
2010,08,25,08,47,12.80
2010,08,25,08,48,12.80
2010,08,25,08,49,12.80
2010,08,25,08,50,12.80
2010,08,25,08,51,12.90
2010,08,25,08,52,12.90
2010,08,25,08,53,12.90
2010,08,25,08,54,13.00
2010,08,25,08,55,13.00
2010,08,25,08,56,13.00
2010,08,25,08,57,13.00
2010,08,25,08,58,12.90
2010,08,25,08,59,12.80
2010,08,25,09,00,12.80
2010,08,25,09,01,12.80
2010,08,25,09,02,12.80
2010,08,25,09,03,12.80
2010,08,25,09,04,12.80
2010,08,25,09,05,12.80
2010,08,25,09,06,12.90
2010,08,25,09,07,12.90
2010,08,25,09,08,12.90
2010,08,25,09,09,13.00
2010,08,25,09,10,13.00
2010,08,25,09,11,13.00
2010,08,25,09,12,13.00
2010,08,25,09,13,13.00
2010,08,25,09,14,13.10
2010,08,25,09,15,13.10
2010,08,25,09,16,13.20
2010,08,25,09,17,13.20
2010,08,25,09,18,13.30
2010,08,25,09,19,13.30
2010,08,25,09,20,13.40
2010,08,25,09,21,13.40
2010,08,25,09,22,13.50
2010,08,25,09,23,13.50
2010,08,25,09,24,13.60
2010,08,25,09,25,13.60
2010,08,25,09,26,13.60
2010,08,25,09,27,13.60
2010,08,25,09,28,13.60
2010,08,25,09,29,13.70
2010,08,25,09,30,13.70
2010,08,25,09,31,13.70
2010,08,25,09,32,13.60
2010,08,25,09,33,13.60
2010,08,25,09,34,13.60
2010,08,25,09,35,13.50
2010,08,25,09,36,13.50
2010,08,25,09,37,13.50
2010,08,25,09,38,13.40
2010,08,25,09,39,13.40
2010,08,25,09,40,13.40
2010,08,25,09,41,13.40
2010,08,25,09,42,13.50
2010,08,25,09,43,13.50
2010,08,25,09,44,13.60
2010,08,25,09,45,13.60
2010,08,25,09,46,13.70
2010,08,25,09,47,13.70
2010,08,25,09,48,13.70
2010,08,25,09,49,13.70
2010,08,25,09,50,13.70
2010,08,25,09,51,13.80
2010,08,25,09,52,13.80
2010,08,25,09,53,13.90
2010,08,25,09,54,13.90
2010,08,25,09,55,14.00
2010,08,25,09,56,14.00
2010,08,25,09,57,14.00
2010,08,25,09,58,14.00
2010,08,25,09,59,14.00
2010,08,25,10,00,14.00
2010,08,25,10,01,14.10
2010,08,25,10,02,14.10
2010,08,25,10,03,14.10
2010,08,25,10,04,14.10
2010,08,25,10,05,14.20
2010,08,25,10,06,14.20
2010,08,25,10,07,14.20
2010,08,25,10,08,14.30
2010,08,25,10,09,14.30
2010,08,25,10,10,14.40
2010,08,25,10,11,14.40
2010,08,25,10,12,14.50
2010,08,25,10,13,14.60
2010,08,25,10,14,14.70
2010,08,25,10,15,14.80
2010,08,25,10,16,14.80
2010,08,25,10,17,14.80
2010,08,25,10,18,14.80
2010,08,25,10,19,14.90
2010,08,25,10,20,14.90
2010,08,25,10,21,15.00
2010,08,25,10,22,15.00
2010,08,25,10,23,15.00
2010,08,25,10,24,14.90
2010,08,25,10,25,14.90
2010,08,25,10,26,14.80
2010,08,25,10,27,14.80
2010,08,25,10,28,14.80
2010,08,25,10,29,14.80
2010,08,25,10,30,14.80
2010,08,25,10,31,14.80
2010,08,25,10,32,14.70
2010,08,25,10,33,14.70
2010,08,25,10,34,14.60
2010,08,25,10,35,14.60
2010,08,25,10,36,14.60
2010,08,25,10,37,14.70
2010,08,25,10,38,14.70
2010,08,25,10,39,14.70
2010,08,25,10,40,14.80
2010,08,25,10,41,14.80
2010,08,25,10,42,14.90
2010,08,25,10,43,14.90
2010,08,25,10,44,15.00
2010,08,25,10,45,15.00
2010,08,25,10,46,15.00
2010,08,25,10,47,15.10
2010,08,25,10,48,15.10
2010,08,25,10,49,15.00
2010,08,25,10,50,15.10
2010,08,25,10,51,15.00
2010,08,25,10,52,15.00
2010,08,25,10,53,15.00
2010,08,25,10,54,14.80
2010,08,25,10,55,14.80
2010,08,25,10,56,14.80
2010,08,25,10,57,14.70
2010,08,25,10,58,14.70
2010,08,25,10,59,14.60
2010,08,25,11,00,14.70
2010,08,25,11,01,14.70
2010,08,25,11,02,14.70
2010,08,25,11,03,14.80
2010,08,25,11,04,14.80
2010,08,25,11,05,14.80
2010,08,25,11,06,14.80
2010,08,25,11,07,14.90
2010,08,25,11,08,15.00
2010,08,25,11,09,15.00
2010,08,25,11,10,15.10
2010,08,25,11,11,15.10
2010,08,25,11,12,15.10
2010,08,25,11,13,15.10
2010,08,25,11,14,15.20
2010,08,25,11,15,15.20
2010,08,25,11,16,15.20
2010,08,25,11,17,15.20
2010,08,25,11,18,15.20
2010,08,25,11,19,15.30
2010,08,25,11,20,15.30
2010,08,25,11,21,15.40
2010,08,25,11,22,15.40
2010,08,25,11,23,15.40
2010,08,25,11,24,15.40
2010,08,25,11,25,15.40
2010,08,25,11,26,15.50
2010,08,25,11,27,15.50
2010,08,25,11,28,15.60
2010,08,25,11,29,15.60
2010,08,25,11,30,15.60
2010,08,25,11,31,15.60
2010,08,25,11,32,15.60
2010,08,25,11,33,15.60
2010,08,25,11,34,15.60
2010,08,25,11,35,15.60
2010,08,25,11,36,15.60
2010,08,25,11,37,15.70
2010,08,25,11,38,15.70
2010,08,25,11,39,15.70
2010,08,25,11,40,15.70
2010,08,25,11,41,15.70
2010,08,25,11,42,15.60
2010,08,25,11,43,15.60
2010,08,25,11,44,15.60
2010,08,25,11,45,15.60
2010,08,25,11,46,15.60
2010,08,25,11,47,15.50
2010,08,25,11,48,15.50
2010,08,25,11,49,15.40
2010,08,25,11,50,15.30
2010,08,25,11,51,15.30
2010,08,25,11,52,15.30
2010,08,25,11,53,15.40
2010,08,25,11,54,15.40
2010,08,25,11,55,15.40
2010,08,25,11,56,15.40
2010,08,25,11,57,15.40
2010,08,25,11,58,15.40
2010,08,25,11,59,15.40
2010,08,25,12,00,15.40
2010,08,25,12,01,15.30
2010,08,25,12,02,15.30
2010,08,25,12,03,15.30
2010,08,25,12,04,15.30
2010,08,25,12,05,15.30
2010,08,25,12,06,15.30
2010,08,25,12,07,15.30
2010,08,25,12,08,15.30
2010,08,25,12,09,15.40
2010,08,25,12,10,15.40
2010,08,25,12,11,15.40
2010,08,25,12,12,15.30
2010,08,25,12,13,15.40
2010,08,25,12,14,15.50
2010,08,25,12,15,15.60
2010,08,25,12,16,15.60
2010,08,25,12,17,15.70
2010,08,25,12,18,15.70
2010,08,25,12,19,15.70
2010,08,25,12,20,15.80
2010,08,25,12,21,15.80
2010,08,25,12,22,15.80
2010,08,25,12,23,15.80
2010,08,25,12,24,15.70
2010,08,25,12,25,15.60
2010,08,25,12,26,15.60
2010,08,25,12,27,15.60
2010,08,25,12,28,15.50
2010,08,25,12,29,15.40
2010,08,25,12,30,15.40
2010,08,25,12,31,15.40
2010,08,25,12,32,15.40
2010,08,25,12,33,15.30
2010,08,25,12,34,15.30
2010,08,25,12,35,15.30
2010,08,25,12,36,15.20
2010,08,25,12,37,15.10
2010,08,25,12,38,15.00
2010,08,25,12,39,14.90
2010,08,25,12,40,14.90
2010,08,25,12,41,15.00
2010,08,25,12,42,15.00
2010,08,25,12,43,15.00
2010,08,25,12,44,15.00
2010,08,25,12,45,15.00
2010,08,25,12,46,15.10
2010,08,25,12,47,15.10
2010,08,25,12,48,15.10
2010,08,25,12,49,15.20
2010,08,25,12,50,15.20
2010,08,25,12,51,15.10
2010,08,25,12,52,15.10
2010,08,25,12,53,15.10
2010,08,25,12,54,15.10
2010,08,25,12,55,15.00
2010,08,25,12,56,15.10
2010,08,25,12,57,15.10
2010,08,25,12,58,15.10
2010,08,25,12,59,15.10
2010,08,25,13,00,15.10
2010,08,25,13,01,15.10
2010,08,25,13,02,15.20
2010,08,25,13,03,15.20
2010,08,25,13,04,15.20
2010,08,25,13,05,15.30
2010,08,25,13,06,15.40
2010,08,25,13,07,15.50
2010,08,25,13,08,15.50
2010,08,25,13,09,15.50
2010,08,25,13,10,15.50
2010,08,25,13,11,15.60
2010,08,25,13,12,15.60
2010,08,25,13,13,15.50
2010,08,25,13,14,15.40
2010,08,25,13,15,15.30
2010,08,25,13,16,15.20
2010,08,25,13,17,15.10
2010,08,25,13,18,15.10
2010,08,25,13,19,14.90
2010,08,25,13,20,14.80
2010,08,25,13,21,14.80
2010,08,25,13,22,14.80
2010,08,25,13,23,14.90
2010,08,25,13,24,14.90
2010,08,25,13,25,15.00
2010,08,25,13,26,15.10
2010,08,25,13,27,15.10
2010,08,25,13,28,15.00
2010,08,25,13,29,15.00
2010,08,25,13,30,14.90
2010,08,25,13,31,14.80
2010,08,25,13,32,14.80
2010,08,25,13,33,14.70
2010,08,25,13,34,14.60
2010,08,25,13,35,14.60
2010,08,25,13,36,14.60
2010,08,25,13,37,14.50
2010,08,25,13,38,14.40
2010,08,25,13,39,14.40
2010,08,25,13,40,14.40
2010,08,25,13,41,14.40
2010,08,25,13,42,14.40
2010,08,25,13,43,14.30
2010,08,25,13,44,14.20
2010,08,25,13,45,14.10
2010,08,25,13,46,14.10
2010,08,25,13,47,14.00
2010,08,25,13,48,14.10
2010,08,25,13,49,14.20
2010,08,25,13,50,14.30
2010,08,25,13,51,14.40
2010,08,25,13,52,14.50
2010,08,25,13,53,14.70
2010,08,25,13,54,14.70
2010,08,25,13,55,14.80
2010,08,25,13,56,14.90
2010,08,25,13,57,15.10
2010,08,25,13,58,15.30
2010,08,25,13,59,15.60
2010,08,25,14,00,15.80
2010,08,25,14,01,15.90
2010,08,25,14,02,16.10
2010,08,25,14,03,16.20
2010,08,25,14,04,16.20
2010,08,25,14,05,16.30
2010,08,25,14,06,16.30
2010,08,25,14,07,16.30
2010,08,25,14,08,16.30
2010,08,25,14,09,16.40
2010,08,25,14,10,16.40
2010,08,25,14,11,16.50
2010,08,25,14,12,16.60
2010,08,25,14,13,16.70
2010,08,25,14,14,16.70
2010,08,25,14,15,16.70
2010,08,25,14,16,16.70
2010,08,25,14,17,16.80
2010,08,25,14,18,16.90
2010,08,25,14,19,16.90
2010,08,25,14,20,16.90
2010,08,25,14,21,17.00
2010,08,25,14,22,17.00
2010,08,25,14,23,17.20
2010,08,25,14,24,17.30
2010,08,25,14,25,17.40
2010,08,25,14,26,17.60
2010,08,25,14,27,17.80
2010,08,25,14,28,17.80
2010,08,25,14,29,17.80
2010,08,25,14,30,17.70
2010,08,25,14,31,17.70
2010,08,25,14,32,17.70
2010,08,25,14,33,17.80
2010,08,25,14,34,17.80
2010,08,25,14,35,17.80
2010,08,25,14,36,17.90
2010,08,25,14,37,17.90
2010,08,25,14,38,18.00
2010,08,25,14,39,18.10
2010,08,25,14,40,18.20
2010,08,25,14,41,18.20
2010,08,25,14,42,18.20
2010,08,25,14,43,18.00
2010,08,25,14,44,17.90
2010,08,25,14,45,17.90
2010,08,25,14,46,17.90
2010,08,25,14,47,18.00
2010,08,25,14,48,18.20
2010,08,25,14,49,18.00
2010,08,25,14,50,17.90
2010,08,25,14,51,17.60
2010,08,25,14,52,17.40
2010,08,25,14,53,17.20
2010,08,25,14,54,17.00
2010,08,25,14,55,16.80
2010,08,25,14,56,16.70
2010,08,25,14,57,16.60
2010,08,25,14,58,16.60
2010,08,25,14,59,16.60
2010,08,25,15,00,16.60
2010,08,25,15,01,16.70
2010,08,25,15,02,16.70
2010,08,25,15,03,16.70
2010,08,25,15,04,16.90
2010,08,25,15,05,17.00
2010,08,25,15,06,17.20
2010,08,25,15,07,17.30
2010,08,25,15,08,17.30
2010,08,25,15,09,17.30
2010,08,25,15,10,17.40
2010,08,25,15,11,17.50
2010,08,25,15,12,17.60
2010,08,25,15,13,17.70
2010,08,25,15,14,17.80
2010,08,25,15,15,17.90
2010,08,25,15,16,17.80
2010,08,25,15,17,17.80
2010,08,25,15,18,17.90
2010,08,25,15,19,18.10
2010,08,25,15,20,18.30
2010,08,25,15,21,18.30
2010,08,25,15,22,18.50
2010,08,25,15,23,18.50
2010,08,25,15,24,18.60
2010,08,25,15,25,18.70
2010,08,25,15,26,18.80
2010,08,25,15,27,18.90
2010,08,25,15,28,18.90
2010,08,25,15,29,18.90
2010,08,25,15,30,18.70
2010,08,25,15,31,18.70
2010,08,25,15,32,18.70
2010,08,25,15,33,18.70
2010,08,25,15,34,18.70
2010,08,25,15,35,18.70
2010,08,25,15,36,18.70
2010,08,25,15,37,18.80
2010,08,25,15,38,18.90
2010,08,25,15,39,19.10
2010,08,25,15,40,19.10
2010,08,25,15,41,19.20
2010,08,25,15,42,19.10
2010,08,25,15,43,19.10
2010,08,25,15,44,19.20
2010,08,25,15,45,19.20
2010,08,25,15,46,19.20
2010,08,25,15,47,19.20
2010,08,25,15,48,19.20
2010,08,25,15,49,19.20
2010,08,25,15,50,19.30
2010,08,25,15,51,19.40
2010,08,25,15,52,19.40
2010,08,25,15,53,19.50
2010,08,25,15,54,19.60
2010,08,25,15,55,19.60
2010,08,25,15,56,19.60
2010,08,25,15,57,19.60
2010,08,25,15,58,19.50
2010,08,25,15,59,19.40
2010,08,25,16,00,19.30
2010,08,25,16,01,19.30
2010,08,25,16,02,19.20
2010,08,25,16,03,19.20
2010,08,25,16,04,19.30
2010,08,25,16,05,19.30
2010,08,25,16,06,19.30
2010,08,25,16,07,19.30
2010,08,25,16,08,19.20
2010,08,25,16,09,19.10
2010,08,25,16,10,19.10
2010,08,25,16,11,18.90
2010,08,25,16,12,18.90
2010,08,25,16,13,18.90
2010,08,25,16,14,18.80
2010,08,25,16,15,18.80
2010,08,25,16,16,18.70
2010,08,25,16,17,18.70
2010,08,25,16,18,18.60
2010,08,25,16,19,18.50
2010,08,25,16,20,18.30
2010,08,25,16,21,18.20
2010,08,25,16,22,18.10
2010,08,25,16,23,17.90
2010,08,25,16,24,17.70
2010,08,25,16,25,17.50
2010,08,25,16,26,17.40
2010,08,25,16,27,17.30
2010,08,25,16,28,17.30
2010,08,25,16,29,17.10
2010,08,25,16,30,17.10
2010,08,25,16,31,17.00
2010,08,25,16,32,17.00
2010,08,25,16,33,17.00
2010,08,25,16,34,17.00
2010,08,25,16,35,17.10
2010,08,25,16,36,17.10
2010,08,25,16,37,17.10
2010,08,25,16,38,17.10
2010,08,25,16,39,17.20
2010,08,25,16,40,17.30
2010,08,25,16,41,17.40
2010,08,25,16,42,17.50
2010,08,25,16,43,17.70
2010,08,25,16,44,17.80
2010,08,25,16,45,17.80
2010,08,25,16,46,17.80
2010,08,25,16,47,17.70
2010,08,25,16,48,17.60
2010,08,25,16,49,17.60
2010,08,25,16,50,17.60
2010,08,25,16,51,17.60
2010,08,25,16,52,17.70
2010,08,25,16,53,17.70
2010,08,25,16,54,17.60
2010,08,25,16,55,17.50
2010,08,25,16,56,17.50
2010,08,25,16,57,17.40
2010,08,25,16,58,17.40
2010,08,25,16,59,17.30
2010,08,25,17,00,17.30
2010,08,25,17,01,17.30
2010,08,25,17,02,17.30
2010,08,25,17,03,17.30
2010,08,25,17,04,17.30
2010,08,25,17,05,17.20
2010,08,25,17,06,17.20
2010,08,25,17,07,17.10
2010,08,25,17,08,17.10
2010,08,25,17,09,17.10
2010,08,25,17,10,17.10
2010,08,25,17,11,17.20
2010,08,25,17,12,17.20
2010,08,25,17,13,17.30
2010,08,25,17,14,17.40
2010,08,25,17,15,17.50
2010,08,25,17,16,17.50
2010,08,25,17,17,17.50
2010,08,25,17,18,17.40
2010,08,25,17,19,17.40